This is the latest recevied weather packets stored in our database for station/object W4OTS. If no packets are shown the sender has not sent any weather packets the latest 10 day(s).
| Time | Temp. | Humidity | Pressure | Rain* | Wind** | Luminosity | Snow |
|---|---|---|---|---|---|---|---|
| 1777617505 | 12.78° C | 62% | 1016.2 hPa | 0 mm | - | 0 W/m² | - |
| 1777617202 | 12.78° C | 61% | 1016.1 hPa | 0 mm | - | 0 W/m² | - |
| 1777616898 | 12.78° C | 61% | 1016.2 hPa | 0 mm | - | 0 W/m² | - |
| 1777616594 | 12.78° C | 60% | 1016 hPa | 0 mm | - | 0 W/m² | - |
| 1777616290 | 12.78° C | 59% | 1016.1 hPa | 0 mm | - | 0 W/m² | - |
| 1777615987 | 12.78° C | 59% | 1016.1 hPa | 0 mm | - | 0 W/m² | - |
| 1777615683 | 12.78° C | 59% | 1016 hPa | 0 mm | - | 0 W/m² | - |
| 1777615380 | 12.78° C | 59% | 1016.3 hPa | 0 mm | - | 0 W/m² | - |
| 1777615079 | 12.78° C | 59% | 1016.3 hPa | 0 mm | - | 0 W/m² | - |
| 1777614775 | 13.33° C | 60% | 1016.3 hPa | 0 mm | - | 0 W/m² | - |
| 1777614470 | 13.33° C | 61% | 1015.8 hPa | 0 mm | - | 0 W/m² | - |
| 1777614167 | 12.78° C | 62% | 1016 hPa | 0 mm | - | 0 W/m² | - |
| 1777613862 | 12.22° C | 62% | 1016.1 hPa | 0 mm | - | 0 W/m² | - |
| 1777613560 | 11.67° C | 67% | 1016.2 hPa | 0 mm | - | 0 W/m² | - |
| 1777613256 | 11.67° C | 67% | 1016.1 hPa | 0 mm | - | 0 W/m² | - |
| 1777612952 | 12.22° C | 70% | 1016.3 hPa | 0 mm | - | 0 W/m² | - |
| 1777612648 | 11.67° C | 66% | 1016.1 hPa | 0 mm | - | 0 W/m² | - |
| 1777612345 | 11.67° C | 67% | 1016.1 hPa | 0 mm | - | 0 W/m² | - |
| 1777612045 | 11.67° C | 71% | 1016 hPa | 0 mm | - | 0 W/m² | - |
| 1777611740 | 11.67° C | 68% | 1016.2 hPa | 0 mm | - | 0 W/m² | - |
| 1777611437 | 11.67° C | 67% | 1015.8 hPa | 0 mm | - | 0 W/m² | - |
| 1777611134 | 11.67° C | 67% | 1015.9 hPa | 0 mm | - | 0 W/m² | - |
| 1777610829 | 11.67° C | 68% | 1015.9 hPa | 0 mm | - | 0 W/m² | - |
| 1777610524 | 11.67° C | 72% | 1016 hPa | 0 mm | - | 0 W/m² | - |
| 1777610219 | 11.67° C | 70% | 1015.7 hPa | 0 mm | - | 0 W/m² | - |
* Rain latest hour (hover to see other rain measurements)
** Current wind speed in m/s (hover to see current wind gust speed)